KC0AFB Weather Reports


time (UTC)temp
F
wind
direction
speed
knots
gust
knots
rain 1hr
in
rain 24hr
in
rain mn
in
humidity
%
barometer
mb
20260902190842 80 136 6.1 7.8 0.00 0.00 0.00 51 1012.7
20260902190341 80 114 7.8 7.8 0.00 0.00 0.00 50 1012.9
20260902185837 80 109 7.0 7.8 0.00 0.00 0.00 51 1012.9
20260902185332 80 82 4.3 5.2 0.00 0.00 0.00 53 1013.0
20260902184828 80 68 7.8 9.6 0.00 0.00 0.00 52 1012.9
20260902184323 80 58 7.0 8.7 0.00 0.00 0.00 51 1012.9
20260902183818 79 148 6.1 8.7 0.00 0.00 0.00 51 1013.1
20260902183314 80 144 7.8 8.7 0.00 0.00 0.00 50 1013.3
20260902182810 80 120 9.6 12.2 0.00 0.00 0.00 50 1013.4
20260902182307 80 70 7.0 7.8 0.00 0.00 0.00 50 1012.9
20260902181803 79 165 9.6 11.3 0.00 0.00 0.00 51 1013.4
20260902181258 79 86 5.2 7.0 0.00 0.00 0.00 52 1013.5
20260902180752 79 82 7.8 8.7 0.00 0.00 0.00 51 1013.5
20260902180248 79 135 9.6 12.2 0.00 0.00 0.00 50 1013.2
20260902175743 79 130 7.8 11.3 0.00 0.00 0.00 50 1013.5
20260902175239 79 155 6.1 7.0 0.00 0.00 0.00 51 1013.5
20260902174734 79 101 9.6 12.2 0.00 0.00 0.00 52 1013.7
20260902174230 78 77 6.1 7.8 0.00 0.00 0.00 53 1013.5
20260902173725 78 78 7.8 8.7 0.00 0.00 0.00 52 1013.8
20260902173220 77 133 5.2 6.1 0.00 0.00 0.00 54 1013.8
20260902172715 77 137 7.8 8.7 0.00 0.00 0.00 54 1013.9
20260902172214 77 122 6.1 7.0 0.00 0.00 0.00 55 1013.8
20260902171709 76 144 6.1 7.8 0.00 0.00 0.00 56 1013.8
20260902171205 77 184 9.6 12.2 0.00 0.00 0.00 55 1014.0
20260902170701 77 133 7.0 7.8 0.00 0.00 0.00 57 1013.9
20260902170156 76 105 4.3 5.2 0.00 0.00 0.00 57 1014.0
20260902165650 76 151 6.1 7.8 0.00 0.00 0.00 58 1014.2
20260902165144 75 89 8.7 11.3 0.00 0.00 0.00 58 1014.0
20260902164640 75 113 6.1 7.0 0.00 0.00 0.00 61 1014.0
20260902164139 75 94 7.0 7.8 0.00 0.00 0.00 59 1014.2
20260902163634 75 120 6.1 7.0 0.00 0.00 0.00 60 1014.1
20260902163134 75 112 5.2 6.1 0.00 0.00 0.00 59 1014.2
20260902162632 75 143 7.0 8.7 0.00 0.00 0.00 60 1013.9
20260902162126 75 132 7.0 7.0 0.00 0.00 0.00 60 1014.2
20260902161622 74 158 7.8 9.6 0.00 0.00 0.00 61 1014.2
20260902161118 74 144 7.8 11.3 0.00 0.00 0.00 62 1014.3
20260902160608 73 150 7.8 9.6 0.00 0.00 0.00 61 1014.2
20260902155555 73 165 3.5 5.2 0.00 0.00 0.00 63 1014.3
20260902155054 74 118 4.3 6.1 0.00 0.00 0.00 64 1014.2
20260902154550 73 114 8.7 9.6 0.00 0.00 0.00 64 1014.3
20260902154045 73 149 6.1 7.0 0.00 0.00 0.00 65 1014.2
20260902153543 72 102 5.2 6.1 0.00 0.00 0.00 67 1014.3
20260902153039 72 139 6.1 8.7 0.00 0.00 0.00 67 1014.3
20260902152535 71 122 6.1 7.8 0.00 0.00 0.00 68 1014.5
20260902152030 71 75 7.0 7.8 0.00 0.00 0.00 69 1014.1
20260902151526 71 133 4.3 6.1 0.00 0.00 0.00 70 1014.2
20260902151025 70 146 4.3 6.1 0.00 0.00 0.00 70 1014.1
20260902150521 70 117 5.2 8.7 0.00 0.00 0.00 71 1014.3
20260902150016 70 106 6.1 7.0 0.00 0.00 0.00 71 1014.4
20260902145510 70 118 4.3 6.1 0.00 0.00 0.00 72 1014.5
20260902145005 70 119 4.3 6.1 0.00 0.00 0.00 72 1014.8
20260902144502 69 89 5.2 6.1 0.00 0.00 0.00 72 1014.5
20260902143956 69 118 7.0 8.7 0.00 0.00 0.00 72 1014.6
20260902143451 69 109 6.1 7.8 0.00 0.00 0.00 72 1014.6
20260902142947 69 97 4.3 5.2 0.00 0.00 0.00 74 1014.9
20260902142442 68 153 7.0 8.7 0.00 0.00 0.00 74 1014.6
20260902141937 68 130 4.3 5.2 0.00 0.00 0.00 75 1014.5
20260902141433 68 124 6.1 7.0 0.00 0.00 0.00 75 1014.6
20260902140932 68 82 4.3 6.1 0.00 0.00 0.00 76 1014.5
20260902140427 68 102 6.1 6.1 0.00 0.00 0.00 76 1014.8
20260902135922 68 90 2.6 2.6 0.00 0.00 0.00 76 1014.6
20260902135418 67 136 4.3 5.2 0.00 0.00 0.00 76 1014.5
20260902134916 66 108 2.6 2.6 0.00 0.00 0.00 79 1014.5
20260902134412 66 67 3.5 5.2 0.00 0.00 0.00 79 1014.5
20260902133907 66 114 2.6 2.6 0.00 0.00 0.00 79 1014.6
20260902133407 66 128 2.6 2.6 0.00 0.00 0.00 78 1014.6
20260902132902 66 141 2.6 4.3 0.00 0.00 0.00 78 1014.6
20260902132357 66 104 3.5 4.3 0.00 0.00 0.00 77 1014.5
20260902131852 65 109 2.6 5.2 0.00 0.00 0.00 77 1014.4
20260902131349 65 119 3.5 4.3 0.00 0.00 0.00 79 1014.8
20260902130848 64 90 3.5 4.3 0.00 0.00 0.00 81 1014.6
20260902130344 63 99 2.6 2.6 0.00 0.00 0.00 83 1014.5
20260902125838 62 98 1.7 1.7 0.00 0.00 0.00 84 1014.5
20260902125334 61 112 2.6 2.6 0.00 0.00 0.00 86 1014.5
20260902124831 61 125 2.6 2.6 0.00 0.00 0.00 86 1014.4
20260902124326 61 110 3.5 4.3 0.00 0.00 0.00 86 1014.6
20260902123821 61 81 3.5 4.3 0.00 0.00 0.00 85 1014.5
20260902123318 60 86 4.3 4.3 0.00 0.00 0.00 85 1014.0
20260902122816 60 78 3.5 4.3 0.00 0.00 0.00 85 1014.3
20260902122313 60 78 1.7 1.7 0.00 0.00 0.00 86 1014.5
20260902121812 60 74 0.9 1.7 0.00 0.00 0.00 86 1014.2
20260902121307 59 95 0.9 0.9 0.00 0.00 0.00 86 1014.3
20260902120803 59 105 0.9 0.9 0.00 0.00 0.00 86 1014.3
20260902120259 60 104 0.9 1.7 0.00 0.00 0.00 85 1014.3
20260902115753 60 91 2.6 2.6 0.00 0.00 0.00 85 1014.1
20260902115249 60 84 3.5 4.3 0.00 0.00 0.00 85 1014.4
20260902114745 60 123 2.6 2.6 0.00 0.00 0.00 84 1014.3
20260902114241 60 120 2.6 2.6 0.00 0.00 0.00 83 1014.1
20260902113736 60 106 3.5 4.3 0.00 0.00 0.00 83 1013.9
20260902113231 60 85 4.3 6.1 0.00 0.00 0.00 84 1014.2
20260902112730 59 96 3.5 4.3 0.00 0.00 0.00 85 1014.1
20260902112228 60 111 2.6 4.3 0.00 0.00 0.00 84 1014.3
20260902111723 60 112 2.6 2.6 0.00 0.00 0.00 84 1014.3
20260902111219 60 111 1.7 1.7 0.00 0.00 0.00 83 1014.3
20260902110714 60 81 2.6 2.6 0.00 0.00 0.00 83 1014.1
20260902110210 61 77 3.5 4.3 0.00 0.00 0.00 82 1014.0
20260902105710 61 68 4.3 6.1 0.00 0.00 0.00 82 1014.0
20260902105205 61 70 4.3 5.2 0.00 0.00 0.00 82 1013.9
20260902104701 61 69 3.5 4.3 0.00 0.00 0.00 82 1014.1
20260902104157 60 77 2.6 2.6 0.00 0.00 0.00 82 1014.2
20260902103655 60 72 1.7 1.7 0.00 0.00 0.00 82 1014.1
20260902103151 60 79 0.0 0.9 0.00 0.00 0.00 82 1014.2
20260902102647 61 112 0.0 0.9 0.00 0.00 0.00 80 1014.1
20260902102144 62 97 2.6 2.6 0.00 0.00 0.00 79 1014.1
20260902101639 62 76 2.6 2.6 0.00 0.00 0.00 78 1014.3
20260902101138 62 74 2.6 2.6 0.00 0.00 0.00 78 1013.9
20260902100633 60 53 1.7 1.7 0.00 0.00 0.00 81 1014.0
20260902100128 60 108 0.0 0.0 0.00 0.00 0.00 82 1014.1
20260902095627 61 152 0.0 0.0 0.00 0.00 0.00 81 1014.1
20260902095126 62 61 0.9 0.9 0.00 0.00 0.00 80 1014.0
20260902094621 62 64 1.7 1.7 0.00 0.00 0.00 79 1014.0
20260902094118 62 62 1.7 1.7 0.00 0.00 0.00 79 1014.2
20260902093612 62 58 2.6 2.6 0.00 0.00 0.00 79 1013.9
20260902093106 63 66 2.6 2.6 0.00 0.00 0.00 78 1014.1
20260902092601 63 69 1.7 2.6 0.00 0.00 0.00 77 1013.9
20260902092056 63 62 2.6 2.6 0.00 0.00 0.00 78 1014.0
20260902091551 62 58 2.6 2.6 0.00 0.00 0.00 79 1014.0
20260902091047 62 76 1.7 1.7 0.00 0.00 0.00 79 1014.3
20260902090542 62 83 2.6 2.6 0.00 0.00 0.00 79 1014.1
20260902090042 62 77 1.7 1.7 0.00 0.00 0.00 81 1014.4
20260902085536 62 93 0.9 0.9 0.00 0.00 0.00 80 1014.6
20260902085031 62 94 1.7 1.7 0.00 0.00 0.00 79 1014.5
20260902084522 62 84 0.9 0.9 0.00 0.00 0.00 80 1014.5
20260902084017 63 81 0.9 0.9 0.00 0.00 0.00 78 1014.5
20260902083513 63 102 0.9 1.7 0.00 0.00 0.00 78 1014.4
20260902083007 63 114 1.7 1.7 0.00 0.00 0.00 78 1014.6
20260902082503 63 76 2.6 2.6 0.00 0.00 0.00 78 1014.4
20260902081959 63 62 2.6 2.6 0.00 0.00 0.00 78 1014.4
20260902081456 62 58 1.7 1.7 0.00 0.00 0.00 78 1014.5
20260902080954 62 72 0.9 0.9 0.00 0.00 0.00 78 1014.4
20260902080451 62 77 0.9 1.7 0.00 0.00 0.00 78 1014.3
20260902075950 62 72 1.7 1.7 0.00 0.00 0.00 78 1014.3
20260902075447 63 67 2.6 2.6 0.00 0.00 0.00 77 1014.4
20260902074942 63 50 2.6 2.6 0.00 0.00 0.00 77 1014.3
20260902074438 63 63 2.6 2.6 0.00 0.00 0.00 77 1014.4
20260902073933 63 62 2.6 2.6 0.00 0.00 0.00 77 1014.2
20260902073429 63 67 1.7 1.7 0.00 0.00 0.00 77 1014.4
20260902072925 63 64 3.5 4.3 0.00 0.00 0.00 76 1014.4
20260902072420 63 72 3.5 4.3 0.00 0.00 0.00 75 1014.8
20260902071917 63 99 2.6 2.6 0.00 0.00 0.00 75 1015.0
20260902071416 63 72 2.6 2.6 0.00 0.00 0.00 75 1014.9
20260902070913 63 123 3.5 4.3 0.00 0.00 0.00 75 1014.5
20260902070408 63 118 4.3 4.3 0.00 0.00 0.00 76 1014.9
20260902065906 63 103 2.6 2.6 0.00 0.00 0.00 75 1014.9
20260902065356 63 117 3.5 4.3 0.00 0.00 0.00 75 1014.8
20260902064851 63 94 2.6 2.6 0.00 0.00 0.00 75 1014.6
20260902064347 63 104 2.6 2.6 0.00 0.00 0.00 74 1014.8
20260902063842 63 115 4.3 5.2 0.00 0.00 0.00 74 1014.8
20260902063336 63 101 4.3 5.2 0.00 0.00 0.00 74 1014.5
20260902062830 62 108 2.6 2.6 0.00 0.00 0.00 76 1014.4
20260902062325 62 91 0.9 0.9 0.00 0.00 0.00 76 1014.4
20260902061825 62 81 0.9 1.7 0.00 0.00 0.00 76 1014.4
20260902061320 62 126 1.7 1.7 0.00 0.00 0.00 76 1014.5
20260902060817 62 100 0.9 1.7 0.00 0.00 0.00 77 1014.4
20260902060312 62 91 1.7 1.7 0.00 0.00 0.00 75 1014.6
20260902055808 63 75 2.6 2.6 0.00 0.00 0.00 74 1014.5
20260902055307 63 73 1.7 1.7 0.00 0.00 0.00 75 1014.4
20260902054759 63 89 2.6 2.6 0.00 0.00 0.00 74 1014.5
20260902054254 63 114 2.6 2.6 0.00 0.00 0.00 73 1014.5
20260902053750 64 87 1.7 1.7 0.00 0.00 0.00 72 1014.6
20260902053249 65 71 3.5 4.3 0.00 0.00 0.00 71 1014.5
20260902052748 66 55 2.6 2.6 0.00 0.00 0.00 70 1014.3
20260902052244 66 63 2.6 2.6 0.00 0.00 0.00 70 1014.4
20260902051743 66 60 2.6 2.6 0.00 0.00 0.00 69 1014.5
20260902051238 65 62 2.6 2.6 0.00 0.00 0.00 69 1014.5
20260902050732 65 66 3.5 5.2 0.00 0.00 0.00 70 1014.5
20260902050222 65 70 3.5 4.3 0.00 0.00 0.00 70 1014.5
20260902045723 65 81 2.6 4.3 0.00 0.00 0.00 70 1014.5
20260902045219 65 65 4.3 4.3 0.00 0.00 0.00 69 1014.4
20260902044714 65 72 2.6 2.6 0.00 0.00 0.00 69 1014.6
20260902044209 65 100 2.6 4.3 0.00 0.00 0.00 67 1014.9
20260902043659 66 119 3.5 4.3 0.00 0.00 0.00 67 1014.8
20260902043154 66 89 2.6 2.6 0.00 0.00 0.00 67 1014.6
20260902042653 66 80 2.6 2.6 0.00 0.00 0.00 66 1014.6
20260902042148 65 102 2.6 2.6 0.00 0.00 0.00 68 1014.9
20260902041648 65 75 2.6 2.6 0.00 0.00 0.00 69 1015.0
20260902041142 66 81 2.6 2.6 0.00 0.00 0.00 68 1014.6
20260902040642 66 76 3.5 4.3 0.00 0.00 0.00 67 1014.4
20260902040137 66 66 2.6 2.6 0.00 0.00 0.00 67 1015.0
20260902035635 66 79 0.9 1.7 0.00 0.00 0.00 69 1014.9
20260902035131 67 76 1.7 2.6 0.00 0.00 0.00 67 1014.9
20260902034630 67 74 2.6 2.6 0.00 0.00 0.00 66 1014.8
20260902034125 67 83 3.5 4.3 0.00 0.00 0.00 66 1014.8
20260902033625 67 69 2.6 2.6 0.00 0.00 0.00 66 1014.9
20260902033119 67 82 1.7 1.7 0.00 0.00 0.00 66 1014.8
20260902032618 68 80 2.6 2.6 0.00 0.00 0.00 64 1014.9
20260902032112 68 70 2.6 2.6 0.00 0.00 0.00 63 1014.6
20260902031607 68 70 2.6 2.6 0.00 0.00 0.00 63 1014.5
20260902031104 68 76 3.5 4.3 0.00 0.00 0.00 62 1014.6
20260902030603 68 71 3.5 4.3 0.00 0.00 0.00 62 1014.5
20260902030058 68 88 2.6 2.6 0.00 0.00 0.00 63 1014.9
20260902025557 68 79 2.6 2.6 0.00 0.00 0.00 64 1014.8
20260902025047 67 63 3.5 4.3 0.00 0.00 0.00 64 1015.0
20260902024542 68 76 2.6 2.6 0.00 0.00 0.00 66 1015.0
20260902024037 68 79 1.7 1.7 0.00 0.00 0.00 65 1014.8
20260902023533 68 69 2.6 2.6 0.00 0.00 0.00 66 1014.9
20260902023027 68 64 1.7 1.7 0.00 0.00 0.00 67 1014.6
20260902022522 68 60 2.6 4.3 0.00 0.00 0.00 67 1014.6
20260902022018 68 74 1.7 1.7 0.00 0.00 0.00 67 1014.8
20260902021513 69 67 1.7 1.7 0.00 0.00 0.00 66 1014.6
20260902021008 68 71 1.7 1.7 0.00 0.00 0.00 67 1014.6
20260902020504 68 95 1.7 2.6 0.00 0.00 0.00 69 1014.5
20260902015959 68 100 0.9 1.7 0.00 0.00 0.00 69 1014.8
20260902015455 68 102 1.7 1.7 0.00 0.00 0.00 70 1014.4
20260902014950 68 104 0.9 1.7 0.00 0.00 0.00 69 1014.5
20260902014447 69 87 0.9 0.9 0.00 0.00 0.00 69 1014.5
20260902013947 69 87 2.6 2.6 0.00 0.00 0.00 67 1014.3
20260902013441 69 74 1.7 1.7 0.00 0.00 0.00 67 1014.3
20260902012936 69 73 0.9 1.7 0.00 0.00 0.00 67 1014.5
20260902012432 70 90 0.9 0.9 0.00 0.00 0.00 65 1014.5
20260902011928 70 75 0.9 0.9 0.00 0.00 0.00 65 1014.5
20260902011422 71 91 0.9 0.9 0.00 0.00 0.00 66 1014.4
20260902010916 71 107 1.7 1.7 0.00 0.00 0.00 65 1014.6
20260902010412 71 95 0.9 1.7 0.00 0.00 0.00 66 1014.6
20260902005910 71 95 0.9 1.7 0.00 0.00 0.00 66 1014.5
20260902005410 72 87 0.9 0.9 0.00 0.00 0.00 67 1014.8
20260902004906 72 86 0.9 0.9 0.00 0.00 0.00 67 1014.6
20260902004405 73 79 1.7 1.7 0.00 0.00 0.00 63 1014.5
20260902003901 73 73 0.9 0.9 0.00 0.00 0.00 63 1014.6
20260902003356 73 74 0.9 0.9 0.00 0.00 0.00 62 1014.9
20260902002852 73 62 0.9 0.9 0.00 0.00 0.00 61 1014.6
20260902002350 73 75 0.9 0.9 0.00 0.00 0.00 61 1014.3
20260902001846 73 73 0.0 0.0 0.00 0.00 0.00 60 1014.8
20260902001341 74 63 0.9 0.9 0.00 0.00 0.00 61 1014.5
20260902000836 74 79 1.7 1.7 0.00 0.00 0.00 59 1014.6
20260902000337 74 74 0.0 0.0 0.00 0.00 0.00 59 1014.9
20260901235831 75 96 0.0 0.0 0.00 0.00 0.00 57 1014.8
20260901235330 74 113 1.7 1.7 0.00 0.00 0.00 55 1014.8
20260901234825 74 126 0.9 1.7 0.00 0.00 0.00 55 1015.0
20260901234319 74 126 0.9 0.9 0.00 0.00 0.00 56 1014.5
20260901233815 74 135 2.6 2.6 0.00 0.00 0.00 55 1015.1
20260901233311 74 132 1.7 2.6 0.00 0.00 0.00 57 1015.0
20260901232806 74 130 1.7 1.7 0.00 0.00 0.00 58 1015.3
20260901232301 74 124 1.7 1.7 0.00 0.00 0.00 58 1015.1
20260901231757 74 120 2.6 2.6 0.00 0.00 0.00 57 1014.9
20260901231253 75 146 2.6 2.6 0.00 0.00 0.00 56 1015.0
20260901230749 75 108 0.9 1.7 0.00 0.00 0.00 57 1015.2
20260901230248 75 109 0.9 1.7 0.00 0.00 0.00 56 1015.0
20260901225744 75 116 2.6 2.6 0.00 0.00 0.00 55 1014.9
20260901225238 75 121 1.7 1.7 0.00 0.00 0.00 55 1014.9
20260901224734 75 106 0.9 0.9 0.00 0.00 0.00 54 1015.1
20260901224225 75 112 1.7 1.7 0.00 0.00 0.00 53 1014.9
20260901223721 75 119 1.7 1.7 0.00 0.00 0.00 55 1015.1
20260901223215 75 103 1.7 1.7 0.00 0.00 0.00 53 1014.8
20260901222711 75 108 0.9 0.9 0.00 0.00 0.00 54 1014.9
20260901222208 75 115 2.6 2.6 0.00 0.00 0.00 51 1015.0
20260901221703 75 106 2.6 2.6 0.00 0.00 0.00 52 1015.1
20260901221159 75 104 1.7 1.7 0.00 0.00 0.00 52 1015.1
20260901220658 75 108 2.6 2.6 0.00 0.00 0.00 50 1015.3
20260901220157 76 127 1.7 1.7 0.00 0.00 0.00 49 1015.2
20260901215655 76 129 1.7 1.7 0.00 0.00 0.00 50 1015.2
20260901215150 76 132 2.6 2.6 0.00 0.00 0.00 50 1015.3
20260901214648 76 123 1.7 1.7 0.00 0.00 0.00 50 1015.4
20260901214143 76 128 2.6 2.6 0.00 0.00 0.00 50 1015.5
20260901213642 76 135 1.7 1.7 0.00 0.00 0.00 50 1015.3
20260901213137 76 134 1.7 1.7 0.00 0.00 0.00 48 1015.3
20260901212637 77 149 1.7 1.7 0.00 0.00 0.00 48 1015.3
20260901212133 77 141 0.9 0.9 0.00 0.00 0.00 51 1015.5
20260901211627 77 108 1.7 1.7 0.00 0.00 0.00 46 1015.3
20260901211124 77 102 0.9 1.7 0.00 0.00 0.00 47 1015.3
20260901210620 77 148 0.9 1.7 0.00 0.00 0.00 45 1015.6
20260901210116 77 157 2.6 2.6 0.00 0.00 0.00 45 1015.4
20260901205611 77 142 0.9 1.7 0.00 0.00 0.00 46 1015.6
20260901205105 77 108 2.6 2.6 0.00 0.00 0.00 46 1015.6
20260901204602 77 182 2.6 2.6 0.00 0.00 0.00 47 1015.8
20260901204056 77 135 2.6 2.6 0.00 0.00 0.00 48 1015.5
20260901203550 77 149 2.6 2.6 0.00 0.00 0.00 48 1015.7
20260901203046 77 160 2.6 2.6 0.00 0.00 0.00 47 1015.6
20260901202545 77 158 1.7 1.7 0.00 0.00 0.00 49 1015.7
20260901202042 77 186 1.7 1.7 0.00 0.00 0.00 48 1015.7
20260901201537 77 179 1.7 1.7 0.00 0.00 0.00 48 1015.8
20260901201036 77 181 1.7 1.7 0.00 0.00 0.00 47 1015.6
20260901200536 77 190 1.7 1.7 0.00 0.00 0.00 48 1015.9
20260901200031 77 151 1.7 1.7 0.00 0.00 0.00 46 1016.0
20260901195528 77 156 0.9 0.9 0.00 0.00 0.00 46 1016.2
20260901195023 77 215 3.5 4.3 0.00 0.00 0.00 45 1016.1
20260901194518 77 222 3.5 5.2 0.00 0.00 0.00 44 1016.2
20260901194014 78 228 3.5 4.3 0.00 0.00 0.00 44 1016.0
20260901193513 78 201 1.7 1.7 0.00 0.00 0.00 42 1016.1
20260901193014 78 231 0.9 1.7 0.00 0.00 0.00 43 1016.2
20260901192509 79 331 2.6 2.6 0.00 0.00 0.00 42 1016.0
20260901192004 79 147 1.7 1.7 0.00 0.00 0.00 43 1016.2
20260901191500 79 177 2.6 2.6 0.00 0.00 0.00 41 1016.2